RH
100 99 100 100 100 100 100 100 100 100 100 91 100 99 98 100 100 100 100 93 77 96 100 100 100 100 76 53 51 79 90 100 100 100 100 100 100 96 78 56 35 46 58 41
88 72 94 100 98 100 100 100 96 96 85 68 94 82 69 69 100 100 84 71 86 96 90 100 99 81 68 54 70 85 100 99 100 100 100 100 100 90 71 53 33 40 40 38
100 100 100 100 100 97 99 91 95 94 92 73 66 92 100 99 94 100 100 97 93 94 99 100 85 69 71 64 87 100 100 100 100 100 100 100 99 80 68 47 36 39 46 42
99 100 100 99 97 100 85 100 97 70 75 71 64 62 100 100 100 100 100 100 100 100 100 97 77 69 69 99 100 100 100 100 100 100 100 100 90 74 61 44 47 40 43 39
100 100 100 100 100 100 99 100 97 73 58 70 65 65 100 99 99 100 91 84 100 100 100 91 95 90 100 100 100 100 100 100 100 100 100 99 80 70 48 43 44 37 37 38
100 100 100 100 98 100 78 100 82 69 69 58 72 81 91 82 94 94 81 100 100 100 100 98 100 100 100 100 100 94 79 98 100 100 100 88 72 51 40 36 35 40 45 52
76 60 100 100 77 100 100 99 100 80 70 96 80 59 69 93 99 79 92 100 100 100 92 94 95 96 100 100 86 88 99 100 100 100 96 76 51 37 34 39 44 51 54 66
100 89 91 100 98 100 100 100 100 84 100 88 94 62 84 95 100 100 91 75 94 100 90 88 93 92 75 79 92 100 100 100 100 97 81 53 38 37 38 51 57 50 56 66
100 97 100 100 100 90 85 100 100 100 100 88 82 71 80 94 97 90 65 97 100 96 66 67 64 62 66 86 100 100 100 100 91 83 61 42 34 37 41 48 44 42 86 100
100 96 100 100 100 100 100 100 98 94 84 70 69 68 87 100 99 93 92 97 100 100 86 79 80 92 100 100 100 100 100 84 73 60 48 40 32 36 41 38 50 46 100 100
100 100 100 100 100 100 97 97 100 100 71 63 56 59 98 97 96 100 100 100 100 100 100 100 100 100 100 100 100 98 82 71 50 39 39 38 30 36 37 33 42 83 100 100
100 100 100 100 100 100 100 100 100 85 74 76 69 58 96 100 100 100 100 100 100 100 100 100 100 100 100 100 99 86 80 55 42 41 37 39 43 51 53 58 43 100 100 100
100 100 100 99 100 99 99 100 100 100 100 98 100 96 100 100 100 100 100 100 100 100 100 98 100 100 98 84 78 80 65 46 36 33 44 55 53 62 61 59 54 94 100 100
100 100 100 94 100 100 100 100 100 99 83 74 62 76 100 100 95 93 88 100 100 100 100 98 95 89 80 75 77 62 42 32 31 52 64 70 80 65 65 61 75 94 100 100
100 100 100 100 100 98 97 93 91 73 70 72 76 72 85 77 100 100 100 100 98 87 80 79 74 66 72 68 49 39 30 30 56 67 73 79 77 78 75 79 76 94 100 100
100 100 100 100 100 100 100 93 77 76 99 95 100 100 100 100 82 84 85 85 81 78 77 80 69 58 43 36 38 33 41 90 100 88 81 83 73 86 80 90 94 100 100 94
100 100 100 100 100 100 100 81 79 91 100 96 71 100 96 97 90 88 96 86 85 86 78 68 59 50 54 48 43 48 100 100 93 77 84 65 83 71 76 86 100 100 99 100
100 100 100 94 100 100 77 87 84 76 75 71 62 73 98 100 92 84 83 84 82 78 69 73 67 62 54 51 45 87 98 79 68 57 51 73 75 79 84 100 100 100 98 100
78 80 78 71 88 85 83 83 85 92 79 64 50 51 50 66 73 67 70 71 68 64 78 80 60 52 51 54 89 82 78 64 49 58 82 96 88 94 100 100 100 100 100 100
65 71 78 73 70 67 67 81 100 99 53 60 44 45 50 56 56 67 77 73 86 97 83 63 58 60 64 71 77 63 60 53 80 96 100 100 100 100 100 100 100 100 100 100
100 100 100 97 89 67 74 66 75 66 68 81 70 81 76 58 57 67 74 80 75 66 74 72 82 88 94 70 55 55 61 87 100 100 100 100 100 100 100 100 100 100 100 100
100 100 100 96 100 86 60 91 72 76 77 81 70 66 85 59 83 84 77 88 82 70 68 78 98 88 57 60 63 84 99 100 100 100 100 100 100 100 100 100 100 100 99 97
100 100 100 100 100 100 100 100 84 92 93 54 48 61 81 85 92 94 97 76 71 74 72 75 70 75 65 55 87 100 100 100 100 100 100 100 100 100 100 100 100 84 82 71
100 100 100 100 100 100 100 98 90 63 83 95 100 100 100 100 95 94 100 99 95 98 76 81 72 52 80 100 100 100 100 100 100 100 100 100 100 100 100 100 93 70 44 32
100 100 100 100 100 100 98 100 100 100 100 100 100 100 100 100 100 100 100 100 100 98 92 81 84 97 100 100 100 100 100 100 100 100 100 98 100 100 95 92 61 36 27 23
100 100 100 100 100 100 100 100 100 100 100 100 100 100 90 88 100 100 68 83 86 93 99 100 100 100 100 100 100 100 100 100 100 100 100 100 100 88 86 53 29 25 22 17
Wind_Speed
68 61 52 56 60 59 55 53 53 54 55 52 50 50 52 47 48 51 49 48 48 47 50 53 51 50 57 58 52 54 57 56 60 56 54 52 53 57 59 63 60 61 63 63
77 67 66 68 64 62 61 57 59 64 62 58 53 54 57 62 54 54 60 60 53 52 56 55 54 55 60 56 51 54 56 57 61 57 54 59 60 60 62 61 61 61 62 63
77 74 79 77 69 65 64 65 64 62 63 60 54 44 44 52 55 60 59 58 56 57 57 56 60 57 57 55 53 54 56 58 58 56 61 60 62 62 63 60 62 62 64 66
74 69 69 74 67 61 62 61 64 68 73 65 62 54 53 54 56 59 61 57 51 56 60 62 62 59 57 53 52 55 55 58 60 64 65 63 62 63 62 63 64 66 67 70
69 72 72 73 67 68 56 69 70 72 71 61 61 60 48 63 64 65 64 62 56 59 62 61 58 58 55 52 53 56 62 63 63 65 64 62 64 63 64 65 68 69 69 72
80 77 82 67 75 73 69 67 70 71 73 69 65 70 51 61 68 65 63 59 61 64 66 60 55 57 56 55 58 64 63 65 66 63 64 64 64 63 66 66 68 69 73 74
80 75 76 71 72 72 74 72 73 74 77 68 72 73 55 62 63 66 66 63 63 61 64 62 60 60 59 63 65 63 65 64 62 64 64 66 63 65 65 67 72 75 77 78
90 89 80 80 79 77 77 77 75 79 77 72 74 68 65 68 69 72 69 67 64 61 66 66 61 61 64 64 63 66 62 61 64 66 67 67 66 67 68 71 76 78 79 81
88 85 79 78 80 85 83 84 80 83 80 77 76 74 69 70 73 74 67 61 63 66 66 62 61 65 65 64 66 63 60 65 67 68 71 70 68 70 72 75 77 79 80 86
95 94 90 87 88 86 84 82 86 88 87 86 76 74 68 70 72 71 67 65 70 72 71 70 70 65 61 63 60 61 65 66 68 72 72 70 70 72 77 80 84 85 84 90
103 98 92 99 98 92 98 93 89 88 92 89 83 70 67 69 69 69 69 72 72 67 72 67 59 61 61 58 62 65 66 68 71 75 73 75 74 75 80 84 89 87 86 93
101 100 101 100 93 94 96 94 92 95 91 83 80 61 66 70 66 69 71 74 75 70 63 63 64 61 60 64 68 68 68 71 76 76 78 80 80 82 87 92 95 90 93 98
107 112 106 104 100 95 94 91 92 90 87 81 78 61 69 72 74 74 71 71 69 68 63 61 62 66 68 69 70 72 73 76 77 78 81 84 84 86 90 95 98 96 101 107
116 117 113 104 92 93 95 92 94 93 90 81 75 70 68 71 74 73 69 68 67 66 64 64 67 70 72 73 74 76 79 78 77 78 83 89 92 94 97 99 101 102 106 114
110 110 103 95 97 98 96 95 92 91 75 75 62 69 70 73 73 72 71 69 68 67 67 67 69 71 72 76 80 83 80 78 78 83 88 92 97 99 101 104 106 110 112 119
98 96 96 93 93 95 95 92 85 75 71 68 68 67 71 75 75 72 73 71 70 71 70 71 72 74 78 78 80 82 84 84 86 89 93 97 102 105 108 111 113 117 120 123
100 96 98 92 91 91 97 76 81 76 72 70 72 67 73 75 73 70 71 73 71 71 73 76 78 78 79 83 83 82 84 88 92 94 97 100 104 107 110 113 115 123 129 131
97 95 96 94 97 99 85 85 82 80 77 75 72 70 74 78 79 75 75 75 75 78 79 79 79 81 83 83 84 84 89 91 94 98 100 104 107 111 115 112 122 129 132 133
97 96 98 100 98 99 89 85 82 82 76 77 76 76 77 80 79 76 77 79 81 80 79 81 84 83 84 85 88 92 95 98 100 103 109 110 112 114 115 128 130 132 135 138
95 92 95 94 95 94 83 84 84 86 81 78 83 82 79 80 80 80 82 82 80 83 86 87 86 86 87 88 93 97 101 103 108 111 113 115 116 117 127 130 136 142 142 142
92 94 93 93 94 93 90 89 89 90 78 85 84 81 81 82 84 87 87 85 88 88 90 90 91 93 94 98 99 103 105 109 110 112 117 118 121 131 135 137 140 141 146 148
95 94 95 93 95 95 91 89 87 85 87 90 90 84 87 88 88 91 91 92 93 92 92 94 94 99 101 103 107 110 111 112 115 117 119 126 134 136 136 142 144 149 150 152
97 96 95 95 95 97 91 94 96 92 93 94 90 91 92 93 92 96 97 96 96 92 94 97 99 102 106 107 109 113 114 118 118 125 130 135 137 138 146 149 151 154 157 158
99 98 96 93 95 97 97 96 103 103 92 93 89 87 92 97 98 98 98 98 94 92 98 101 105 109 109 109 113 116 117 125 130 134 136 137 144 150 152 154 157 160 155 143
102 102 101 98 99 104 96 95 94 95 86 94 96 97 98 94 95 95 95 94 99 104 107 110 111 110 111 114 116 120 129 132 138 134 142 152 151 153 156 158 160 155 137 119
108 106 109 102 100 98 98 102 100 99 99 99 102 103 107 105 101 108 107 108 110 109 110 109 112 114 117 119 125 130 138 136 136 151 150 153 154 158 161 159 148 131 115 105
Wind_Direction
240 239 244 250 245 245 249 250 253 262 267 266 270 277 283 283 282 284 284 285 292 289 290 291 298 302 307 313 309 310 312 312 311 307 306 306 311 317 324 327 327 328 327 328
242 245 244 247 248 252 256 259 262 267 270 271 271 278 276 277 277 277 279 287 285 288 294 289 295 302 308 309 306 308 310 310 310 306 300 306 312 321 326 326 327 327 328 328
242 240 244 246 252 255 262 265 267 267 268 268 270 272 271 271 275 278 285 286 293 296 290 288 296 303 306 304 306 307 307 309 308 300 303 308 316 322 323 324 325 326 326 326
243 244 252 251 256 261 265 259 259 267 268 270 271 268 269 270 271 276 279 286 291 287 284 289 298 302 303 301 305 307 308 309 304 301 303 308 319 321 321 323 324 323 324 325
246 246 250 252 253 256 254 255 261 266 268 275 279 269 263 272 275 275 279 285 288 287 292 296 299 301 298 300 303 303 307 308 306 303 303 312 318 319 321 323 322 324 324 325
235 237 246 253 256 256 256 256 261 271 272 274 276 274 269 269 272 279 279 280 283 287 291 294 297 297 297 298 298 303 306 307 304 300 308 316 317 318 321 321 322 323 325 325
239 236 250 247 254 256 251 252 264 269 269 267 271 276 284 277 276 278 279 281 285 287 289 292 294 294 293 295 302 304 305 302 298 306 313 316 317 319 318 319 320 322 323 324
238 239 248 252 250 250 250 252 259 264 260 265 272 283 283 274 275 278 281 283 282 285 288 290 290 291 295 300 302 302 298 294 304 311 312 314 315 316 317 316 318 322 323 326
240 241 243 247 251 255 252 252 258 255 257 263 274 281 274 271 271 280 283 279 278 285 292 290 292 295 297 298 299 294 292 303 310 309 310 312 313 314 315 315 318 320 324 325
238 237 238 242 239 243 251 253 255 259 264 270 271 276 275 273 273 278 279 276 281 288 290 290 293 295 296 294 291 291 303 309 309 307 308 310 311 314 314 316 321 325 326 327
238 239 239 240 246 249 254 258 255 260 263 270 274 275 271 274 276 275 273 278 283 285 289 292 291 290 292 288 291 300 305 307 306 306 306 308 311 312 314 318 320 328 325 324
241 240 239 243 242 244 246 251 258 263 270 272 273 274 272 272 272 269 270 274 278 286 285 288 291 290 286 289 297 302 303 304 305 305 307 309 312 316 318 320 320 327 324 320
240 242 241 240 242 248 256 259 261 264 266 270 270 270 267 266 266 270 275 279 281 282 285 288 287 287 290 295 300 299 300 301 303 306 310 311 314 317 318 319 322 323 320 320
239 241 243 246 250 248 250 254 256 258 260 267 270 268 267 266 270 274 276 278 279 281 284 285 286 291 295 297 297 296 298 301 303 308 311 313 317 317 318 320 322 320 318 318
239 244 246 246 247 250 253 255 257 261 266 264 261 262 265 269 272 274 274 277 280 283 284 285 286 289 293 293 295 297 299 302 309 311 312 313 314 316 318 319 319 319 318 318
238 241 243 243 246 250 252 254 258 261 260 260 262 263 265 267 268 272 276 278 279 281 284 285 287 289 289 293 296 299 303 308 308 310 311 312 313 316 318 318 317 317 317 317
240 240 243 245 248 249 249 254 256 255 256 258 262 263 265 270 273 274 275 277 280 281 285 288 290 293 295 297 298 302 305 305 307 309 310 311 314 315 317 315 312 313 317 320
238 240 243 243 245 247 252 253 256 256 255 258 263 266 266 268 270 273 276 278 280 283 285 288 291 292 293 296 301 303 301 304 306 308 310 312 314 315 315 312 312 315 318 318
239 241 243 244 247 250 249 255 258 257 258 260 262 266 269 270 275 277 278 280 283 285 286 288 290 293 296 300 303 301 302 303 306 310 311 313 313 313 313 314 315 315 316 315
240 240 241 244 248 251 250 252 251 255 258 267 270 272 272 274 278 279 278 281 285 287 287 290 294 296 299 301 301 301 302 306 310 311 311 309 311 311 313 312 312 314 313 314
232 237 240 245 249 251 250 250 252 259 266 265 269 270 271 275 277 281 283 284 283 288 291 293 296 298 298 298 300 304 306 307 307 307 308 311 311 311 310 311 312 311 311 312
232 237 243 245 245 252 254 251 256 262 265 264 267 271 272 275 279 279 282 285 286 288 290 293 295 295 297 300 303 305 304 303 305 308 309 308 308 309 308 308 309 309 311 313
234 238 241 244 247 248 248 253 258 260 262 266 269 273 274 275 276 278 281 283 286 288 288 290 293 296 298 301 302 302 302 303 305 306 306 305 306 306 306 308 309 311 313 313
234 239 240 240 243 245 251 252 255 260 264 268 268 270 270 275 279 280 282 284 286 288 291 290 293 295 295 294 296 299 300 302 304 304 305 304 304 306 307 308 310 312 315 314
237 238 237 242 246 249 252 255 257 263 263 265 268 270 271 273 272 274 278 281 281 285 289 290 290 290 292 294 296 297 299 300 302 302 302 304 305 305 307 309 311 312 312 311
237 236 239 240 245 250 254 258 259 262 265 267 267 268 272 273 270 269 276 278 283 286 289 290 290 289 292 293 295 295 297 299 299 301 302 303 304 306 309 310 311 311 310 311